Vorticity
14 16 13 13 13 15 19 21 21 21 17 13 11 7 8 10 10 11 7 26 10 21 -5 -9 20 22 40 21 30 -6 27 16 21 13 7 6 2 -2 3 1 14 6 6
11 10 10 10 9 9 7 8 9 12 14 15 15 13 13 11 11 11 10 14 14 19 20 -6 8 35 34 -9 7 29 11 12 -8 -0 10 13 9 -7 7 14 4 -1 8
9 13 9 8 10 9 9 9 10 10 12 12 12 12 12 12 12 8 8 7 18 18 18 25 10 6 2 6 49 15 13 4 1 -0 2 8 -2 6 11 8 15 -3 29
22 22 6 9 7 2 12 15 14 10 9 10 10 12 13 13 13 16 20 17 12 11 22 1 15 25 7 10 6 26 2 9 9 3 3 4 5 12 7 15 4 14 15
20 18 11 13 12 10 17 14 8 12 11 6 17 14 14 17 14 9 10 18 18 21 23 16 7 9 18 23 25 -28 9 6 6 6 4 -5 6 17 10 26 -2 -6 -12
31 29 18 15 10 28 -1 11 11 10 7 14 9 3 10 19 15 18 13 13 14 23 17 5 22 10 6 2 6 -2 6 3 12 13 29 17 26 14 15 16 -1 -5 8
9 7 10 12 34 30 31 20 15 14 6 6 1 10 22 8 37 15 18 13 18 10 10 8 2 -5 38 15 15 1 7 5 3 17 -3 33 -13 31 17 10 -7 13 6
15 12 16 12 14 19 23 40 39 11 10 15 12 6 7 6 9 18 16 9 6 5 11 4 5 7 -3 1 -3 15 12 12 14 18 11 4 7 6 6 15 18 -0 11
8 8 3 6 7 1 2 9 22 33 36 29 28 37 28 28 9 11 9 7 11 12 11 16 11 3 17 24 13 11 25 6 2 10 15 9 9 -0 6 6 4 9 8
7 7 7 7 6 7 8 9 10 -1 -1 23 48 35 24 18 24 42 15 9 27 15 5 7 3 -2 17 20 26 19 3 5 7 5 4 3 5 8 7 8 10 8 8
7 7 7 6 6 6 5 5 6 7 8 9 6 7 22 37 22 19 27 16 18 38 27 30 25 8 2 -4 -2 -0 2 4 8 9 9 8 8 8 9 9 10 11 12
6 7 7 7 7 7 7 7 6 6 6 6 7 7 7 7 5 3 3 1 1 -1 -1 -1 1 2 3 7 9 10 9 8 7 8 9 9 10 12 15 16 15 14 14
8 8 7 7 8 8 8 8 9 9 9 8 6 6 6 7 8 8 7 7 8 9 10 10 10 9 9 8 8 9 9 10 12 15 16 16 14 14 12 11 10 9 7
7 7 7 8 8 9 9 9 8 8 8 8 9 10 10 10 10 9 9 9 9 10 11 11 11 11 11 11 12 13 14 13 13 13 12 11 10 12 11 11 10 11 11
6 6 7 7 8 8 8 9 9 8 8 8 9 8 9 9 8 8 9 9 9 8 8 8 9 11 11 12 12 12 10 10 9 9 11 12 12 11 11 12 15 16 17
6 6 6 6 7 7 7 7 8 8 8 8 8 8 8 8 8 9 9 9 9 10 10 9 10 11 11 12 12 12 14 13 13 13 12 11 12 13 15 18 20 23 22
6 6 5 6 6 7 8 8 8 8 8 9 9 9 9 9 9 9 10 9 10 11 10 10 11 12 14 13 15 15 13 12 13 13 12 13 14 18 21 22 20 17 18
8 8 7 6 7 7 7 7 8 8 8 8 8 8 8 8 9 7 5 3 5 7 11 14 14 15 14 16 15 14 13 13 13 13 14 17 19 18 17 15 15 14 14
9 10 8 8 7 7 8 7 8 9 8 8 9 9 8 8 8 2 5 8 7 10 10 13 12 13 14 15 14 12 11 11 11 15 17 17 16 14 4 3 9 15 13
7 7 7 8 9 9 9 9 8 9 9 9 9 8 8 8 7 0 6 5 5 11 13 11 12 13 15 15 13 12 10 14 17 17 13 13 10 11 12 11 12 13 14
7 6 6 6 8 9 10 11 10 9 10 11 11 10 9 9 9 1 6 4 8 13 13 11 12 14 16 14 12 10 15 16 14 9 8 7 9 11 10 11 8 7 7
13 14 14 13 13 12 11 11 11 12 12 12 13 12 11 11 9 3 7 4 6 10 10 9 12 16 16 12 9 15 13 11 8 7 8 12 14 10 7 10 14 16 17
12 12 13 14 13 13 12 11 10 11 11 12 14 16 15 13 8 3 6 3 7 19 11 9 13 17 13 9 14 14 11 7 7 9 11 11 9 7 10 14 18 18 19
16 15 15 15 16 14 13 12 11 9 9 11 14 16 14 13 6 1 5 7 14 17 13 11 17 14 11 8 18 10 11 10 9 13 10 9 7 9 12 16 17 16 15
9 11 13 15 17 18 18 15 9 10 11 9 13 15 15 14 6 1 10 9 14 18 13 13 13 14 9 18 13 9 9 10 12 11 8 10 9 9 13 14 17 16 14
14 11 11 14 16 15 22 23 12 11 18 14 11 13 17 13 3 4 14 13 22 14 14 17 14 11 9 17 10 10 10 11 13 10 8 11 9 9 13 13 15 17 18
Height
2995 2996 2998 3000 3002 3006 3009 3011 3013 3017 3020 3024 3027 3030 3033 3035 3038 3040 3042 3045 3048 3052 3056 3059 3064 3068 3070 3074 3077 3079 3077 3082 3079 3083 3085 3087 3088 3088 3088 3090 3088 3088 3088
2992 2994 2997 2999 3001 3004 3006 3007 3008 3011 3013 3016 3019 3021 3024 3027 3029 3031 3033 3035 3038 3041 3045 3049 3054 3057 3060 3062 3064 3069 3070 3071 3072 3072 3077 3079 3079 3078 3077 3076 3076 3075 3075
2989 2991 2993 2996 2999 3000 3000 3002 3004 3006 3009 3011 3013 3015 3016 3018 3020 3021 3022 3026 3029 3030 3035 3039 3044 3048 3050 3056 3053 3059 3061 3063 3064 3065 3067 3067 3067 3067 3065 3063 3063 3062 3060
2986 2989 2992 2995 2996 2996 2997 2998 3000 3001 3003 3005 3006 3007 3008 3009 3011 3012 3013 3014 3018 3022 3024 3030 3035 3038 3044 3046 3046 3048 3051 3052 3053 3056 3056 3055 3054 3053 3051 3051 3050 3049 3047
2985 2988 2991 2993 2993 2994 2995 2995 2996 2997 2998 2999 3000 3000 3001 3002 3002 3004 3006 3007 3009 3011 3015 3021 3027 3031 3034 3035 3036 3037 3041 3041 3045 3044 3044 3042 3041 3040 3039 3039 3036 3037 3037
2988 2991 2992 2992 2993 2992 2993 2993 2993 2994 2994 2994 2995 2996 2996 2996 2996 2997 2999 3001 3004 3006 3011 3015 3016 3020 3024 3026 3028 3031 3033 3034 3034 3034 3033 3032 3030 3031 3029 3029 3028 3027 3024
2997 2996 2995 2994 2992 2992 2991 2990 2989 2991 2990 2991 2991 2992 2991 2991 2991 2993 2993 2995 2998 3000 3004 3008 3011 3014 3016 3016 3019 3022 3024 3024 3024 3025 3024 3023 3023 3020 3020 3018 3017 3015 3013
3003 3002 3000 2997 2996 2993 2991 2988 2986 2987 2986 2986 2986 2987 2987 2987 2989 2990 2991 2993 2995 2997 2999 3002 3003 3007 3008 3011 3013 3014 3014 3014 3014 3014 3013 3012 3011 3010 3009 3007 3006 3005 3003
3010 3006 3004 3001 3000 2998 2996 2992 2989 2986 2984 2983 2980 2980 2982 2982 2985 2985 2986 2988 2990 2993 2995 2998 3000 3003 3004 3005 3006 3006 3006 3005 3005 3005 3004 3003 3002 3000 2998 2997 2994 2992 2989
3013 3010 3007 3004 3002 3000 2997 2995 2994 2991 2988 2987 2984 2981 2980 2981 2981 2982 2983 2983 2985 2987 2990 2992 2994 2995 2998 2998 2999 2998 2999 2999 2998 2997 2995 2993 2992 2989 2987 2985 2982 2979 2975
3014 3011 3008 3005 3003 3000 2998 2996 2994 2992 2990 2988 2988 2986 2984 2983 2983 2984 2983 2984 2984 2986 2988 2990 2991 2992 2993 2993 2992 2992 2991 2990 2989 2987 2984 2981 2978 2975 2973 2971 2968 2965 2961
3014 3012 3010 3007 3004 3002 2999 2997 2995 2992 2991 2990 2989 2987 2986 2986 2986 2986 2986 2987 2987 2988 2988 2987 2987 2986 2987 2987 2985 2984 2981 2979 2977 2975 2973 2971 2968 2966 2963 2959 2955 2951 2947
3015 3013 3010 3008 3005 3003 3001 2999 2997 2995 2993 2991 2989 2987 2986 2985 2984 2984 2983 2983 2983 2983 2983 2983 2982 2981 2980 2978 2976 2974 2972 2969 2966 2964 2961 2958 2955 2953 2951 2948 2945 2941 2937
3015 3013 3011 3009 3006 3004 3001 2999 2997 2995 2993 2990 2988 2986 2985 2984 2983 2982 2982 2981 2981 2980 2979 2978 2977 2975 2972 2969 2966 2963 2960 2957 2954 2951 2950 2948 2945 2942 2938 2934 2931 2928 2925
3014 3012 3009 3007 3004 3002 3000 2998 2995 2993 2991 2988 2987 2985 2983 2982 2981 2980 2979 2977 2976 2974 2972 2969 2967 2964 2961 2957 2954 2952 2950 2947 2944 2941 2937 2934 2931 2928 2925 2922 2918 2914 2910
3009 3007 3004 3002 2999 2997 2995 2992 2990 2988 2986 2984 2982 2981 2979 2977 2976 2974 2973 2971 2969 2967 2965 2962 2959 2956 2953 2949 2946 2943 2939 2936 2933 2931 2928 2925 2923 2919 2916 2912 2907 2902 2899
3004 3001 2999 2997 2994 2993 2991 2989 2987 2985 2983 2982 2980 2978 2976 2975 2972 2970 2968 2966 2963 2961 2958 2955 2951 2948 2944 2941 2937 2934 2932 2929 2926 2923 2920 2916 2912 2907 2903 2899 2896 2892 2890
2998 2996 2994 2992 2989 2987 2984 2983 2981 2979 2977 2975 2973 2971 2968 2966 2964 2962 2960 2957 2954 2951 2948 2945 2941 2938 2935 2932 2929 2925 2922 2920 2916 2913 2909 2904 2900 2896 2893 2889 2886 2883 2880
2990 2988 2985 2983 2980 2977 2975 2974 2972 2970 2968 2966 2964 2961 2959 2957 2955 2953 2950 2947 2945 2941 2937 2934 2931 2927 2924 2921 2919 2916 2913 2910 2907 2903 2899 2895 2891 2888 2885 2881 2877 2874 2871
2979 2976 2973 2972 2971 2970 2968 2965 2963 2961 2959 2957 2955 2952 2949 2948 2946 2943 2940 2937 2934 2931 2927 2924 2921 2918 2915 2912 2910 2907 2905 2902 2898 2894 2891 2888 2885 2882 2879 2875 2871 2867 2864
2968 2966 2963 2963 2962 2960 2958 2956 2954 2952 2950 2948 2946 2942 2940 2938 2936 2934 2931 2929 2925 2922 2918 2914 2912 2910 2907 2904 2902 2899 2896 2893 2891 2888 2885 2882 2880 2877 2873 2869 2865 2861 2857
2958 2957 2954 2952 2951 2949 2947 2945 2943 2941 2939 2937 2935 2932 2930 2929 2927 2925 2922 2919 2916 2913 2909 2905 2903 2902 2899 2896 2894 2891 2888 2887 2885 2883 2881 2877 2874 2871 2867 2863 2858 2853 2850
2946 2944 2942 2940 2938 2937 2935 2934 2932 2929 2928 2925 2923 2921 2919 2918 2917 2916 2913 2910 2907 2903 2900 2897 2896 2894 2892 2890 2888 2885 2884 2882 2880 2878 2875 2871 2868 2865 2861 2856 2852 2848 2844
2934 2932 2930 2928 2926 2924 2923 2921 2920 2918 2917 2915 2913 2911 2910 2909 2908 2906 2904 2901 2897 2894 2892 2889 2888 2887 2885 2884 2882 2880 2879 2876 2874 2872 2869 2866 2863 2860 2857 2852 2847 2843 2839
2925 2922 2919 2917 2915 2912 2911 2910 2908 2906 2904 2902 2902 2901 2899 2899 2898 2897 2894 2891 2888 2885 2884 2882 2882 2881 2880 2878 2876 2875 2873 2871 2869 2867 2864 2862 2859 2856 2852 2848 2843 2840 2836
2914 2911 2909 2906 2904 2901 2899 2898 2897 2894 2892 2890 2890 2890 2890 2890 2889 2887 2884 2882 2878 2877 2876 2876 2875 2875 2873 2872 2871 2870 2868 2867 2864 2862 2860 2858 2856 2852 2849 2845 2841 2836 2833